Weather History for Charlottetown, PE

Change the Weather History Date:

Tuesday, February 18, 2014

  Actual Average Record
Temperature  
Mean Temperature 14 °F -  
Max Temperature 23 °F 30 °F 46 °F (2008)
Min Temperature 7 °F 15 °F -4 °F (2000)
Degree Days  
Heating Degree Days 51    
Moisture  
Dew Point 10 °F    
Average Humidity 75    
Maximum Humidity 92    
Minimum Humidity 49    
Precipitation  
Precipitation 0.00 in 0.12 in - ()
Sea Level Pressure  
Sea Level Pressure 30.27 in    
Wind  
Wind Speed 7 mph ()    
Max Wind Speed 10 mph    
Max Gust Speed 20 mph    
Visibility 15.0 miles    
Events Snow    
Averages and records for this station are not official NWS values.
T = Trace of Precipitation, MM = Missing Value Source: Averaged Metar Reports

Daily Weather History Graph

Daily Weather History Graph

Search for Another Location

Airport:

Trip Planner

Search our weather history database for the weather conditions in past years. The results will help you decide how hot, cold, wet, or windy it might be!

Date:

Astronomy

Feb. 18, 2014 Rise Set
Actual Time 7:10 AM AST 5:42 PM AST
Civil Twilight 6:40 AM AST 6:13 PM AST
Nautical Twilight 6:05 AM AST 6:48 PM AST
Astronomical Twilight 5:30 AM AST 7:23 PM AST
Moon 9:47 PM AST (2/18) 8:26 AM AST (2/18)
Length of Visible Light 11h 33m
Length of Day
10h 31m
Waning Gibbous, 88% of the Moon is Illuminated
Feb 18
Waning Gibbous
Feb 22
Last Quarter
Mar 1
New
Mar 8
First Quarter
Mar 16
Full

Hourly Weather History & Observations

Time (AST) Temp. Windchill Dew Point Humidity Pressure Visibility Wind Dir Wind Speed Gust Speed Precip Events Conditions
12:00 AM 19.4 °F 8.6 °F 12.2 °F 74% 30.12 in 15.0 mi NNW 9.2 mph 19.6 mph N/A Snow Light Snow Showers
12:37 AM 19.4 °F 7.9 °F 12.2 °F 74% 30.14 in 15.0 mi NNW 10.4 mph 19.6 mph N/A Snow Low Drifting Snow
1:00 AM 17.6 °F 5.7 °F 10.4 °F 73% 30.15 in 15.0 mi NNW 10.4 mph - N/A Snow Low Drifting Snow
2:00 AM 15 °F - 11 °F 78% 30.19 in 15 mi NW 6.9 mph - -   Partly Cloudy
2:00 AM 15.8 °F 6.1 °F 10.4 °F 79% 30.18 in 15.0 mi NW 6.9 mph - N/A   Partly Cloudy
3:00 AM 15.8 °F 4.2 °F 10.4 °F 79% 30.20 in 15.0 mi NNW 9.2 mph - N/A   Clear
4:00 AM 14.0 °F 5.1 °F 8.6 °F 79% 30.23 in 15.0 mi WNW 5.8 mph - N/A   Clear
5:00 AM 8.6 °F 0.1 °F 6.8 °F 92% 30.25 in 15.0 mi WNW 4.6 mph - N/A   Clear
6:00 AM 8.6 °F -2.6 °F 6.8 °F 92% 30.29 in 15.0 mi West 6.9 mph - N/A   Clear
7:00 AM 6.8 °F -4.8 °F 5.0 °F 92% 30.31 in 15.0 mi West 6.9 mph - N/A   Clear
8:00 AM 11 °F - 6 °F 73% 30.34 in 15 mi West 6.9 mph - -   Scattered Clouds
8:00 AM 10.4 °F -1.5 °F 6.8 °F 85% 30.34 in 15.0 mi West 8.1 mph - N/A   Partly Cloudy
9:00 AM 12.2 °F 2.9 °F 6.8 °F 79% 30.35 in 15.0 mi West 5.8 mph - N/A   Partly Cloudy
10:00 AM 14.0 °F 8.2 °F 6.8 °F 73% 30.35 in 15.0 mi West 3.5 mph - N/A   Partly Cloudy
11:00 AM 15.8 °F 8.6 °F 8.6 °F 73% 30.35 in 15.0 mi SSW 4.6 mph - N/A   Partly Cloudy
12:00 PM 17.6 °F 7.3 °F 8.6 °F 68% 30.36 in 15.0 mi SSW 8.1 mph - N/A   Partly Cloudy
1:00 PM 19.4 °F 8.6 °F 8.6 °F 63% 30.35 in 15.0 mi South 9.2 mph - N/A   Mostly Cloudy
2:00 PM 20 °F - 9 °F 49% 30.33 in 15 mi SSW 9.2 mph - -   Clear
2:00 PM 19.4 °F 9.5 °F 8.6 °F 63% 30.33 in 15.0 mi SSW 8.1 mph - N/A   Mostly Cloudy
3:00 PM 21.2 °F 10.9 °F 8.6 °F 58% 30.32 in 15.0 mi SSW 9.2 mph - N/A   Mostly Cloudy
4:00 PM 19.4 °F 11.5 °F 10.4 °F 68% 30.30 in 15.0 mi SSE 5.8 mph - N/A   Mostly Cloudy
5:00 PM 19.4 °F 11.5 °F 8.6 °F 63% 30.28 in 15.0 mi SE 5.8 mph - N/A   Overcast
6:00 PM 17.6 °F 12.3 °F 10.4 °F 73% 30.28 in 15.0 mi South 3.5 mph - N/A   Overcast
7:00 PM 17.6 °F 9.3 °F 10.4 °F 73% 30.28 in 15.0 mi SSE 5.8 mph - N/A   Overcast
8:00 PM 18 °F - 12 °F 67% 30.25 in 15 mi SE 6.9 mph - -   Mostly Cloudy
8:00 PM 17.6 °F 7.3 °F 12.2 °F 79% 30.25 in 15.0 mi SE 8.1 mph - N/A   Mostly Cloudy
9:00 PM 19.4 °F 9.5 °F 14.0 °F 80% 30.27 in 15.0 mi South 8.1 mph - N/A   Overcast
10:00 PM 21.2 °F 10.1 °F 17.6 °F 86% 30.26 in 15.0 mi South 10.4 mph - N/A   Overcast
11:00 PM 23.0 °F 13.1 °F 19.4 °F 86% 30.22 in 15.0 mi SSE 9.2 mph - N/A   Overcast